Flag Weather past 2 weeks in Glendale, Arizona, U.S.A.

Now
42 °F

Clear.


Feels Like: 38 °F
Forecast: 44 / 67 °F
Wind: 6 mph from Southeast

Location: Phoenix-Deer Valley Municipal Airport

Current Time: Nov 24, 2014 at 7:08:14 AM

Latest Report: Nov 24, 2014 at 5:53 AM


Visibility: 10 mi

Pressure: 30.14 "Hg

Humidity: 20%

Dew point: 4 °F

Location of GlendaleLocation

Historic Weather in Glendale — Graph

°F

Glendale temperature yesterday

Maximum temperature yesterday: 71 °F (at 12:53 PM)
Minimum temperature yesterday: 45 °F (at 3:53 AM)
Average temperature yesterday: 57 °F

Past Weeks' High & Low Weather Summary

 TemperatureHumidityPressure
High83 °F (Nov 9, 2:53 PM)83% (Nov 15, 6:53 AM)30.23 "Hg (Nov 15, 6:53 AM)
Low40 °F (Nov 24, 4:53 AM)5% (Nov 16, 2:53 PM)29.70 "Hg (Nov 10, 4:53 PM)
Average61 °F33%29.95 "Hg
* Reported Nov 9 5:53 AM — Nov 24 5:53 AM, Glendale, Weather by CustomWeather, © 2014

Note: Actual official high and low records may vary slightly from our data, if they occured in-between our weather recording intervals... More about our weather records

Advertising

Glendale weather history for previous 24 hours

 ConditionsComfort  
Time TempWeatherWind HumidityBarometerVisibility
5:53 AM
Nov 24
42 °FClear.6 mph20%30.14 "Hg10 mi
4:53 AM40 °FClear.No wind25%30.13 "Hg10 mi
3:53 AM42 °FClear.3 mph20%30.12 "Hg10 mi
2:53 AM47 °FClear.3 mph15%30.13 "Hg10 mi
1:53 AM46 °FClear.No wind14%30.12 "Hg10 mi
12:53 AM45 °FClear.No wind16%30.11 "Hg10 mi
11:53 PM
Nov 23
48 °FClear.6 mph13%30.10 "Hg10 mi
10:53 PM49 °FClear.5 mph13%30.09 "Hg10 mi
9:53 PM51 °FClear.6 mph12%30.08 "Hg10 mi
8:53 PM57 °FClear.8 mph10%30.08 "Hg10 mi
7:53 PM60 °FClear.10 mph8%30.05 "Hg10 mi
6:53 PM63 °FClear.10 mph7%30.03 "Hg10 mi
5:53 PM64 °FClear.9 mph6%30.00 "Hg10 mi
4:53 PM68 °FSunny.12 mph5%29.99 "Hg10 mi
3:53 PM71 °FSunny.15 mph5%29.98 "Hg10 mi
2:53 PM71 °FSunny.16 mph7%29.97 "Hg10 mi
1:53 PM71 °FSunny.15 mph9%29.97 "Hg10 mi
12:53 PM71 °FSunny.15 mph10%29.98 "Hg10 mi
11:53 AM69 °FSunny.17 mph14%30.01 "Hg10 mi
10:53 AM68 °FSunny.20 mph15%30.03 "Hg10 mi
9:53 AM59 °FSunny.3 mph32%30.03 "Hg10 mi
8:53 AM53 °FSunny.No wind39%30.02 "Hg10 mi
7:53 AM46 °FSunny.No wind51%29.99 "Hg10 mi
Weather by CustomWeather, © 2014

See weather overviewHow to use our weather pages